Location: Ab? ar R?sh Ba?r?
(24.1861°N, 32.8847°E)
Time: 20:58:17
(UTC+00:00)

Milstar 3 Cent rocket - Pass Details

Date: 06 June 2022
Orbit: 706 x 5146 km, 28.3° (Epoch: 02 July)

Event Time Altitude Azimuth Distance (km) Brightness Sun altitude
Rises 18:52:02 0° 283° (WNW) 8,465 8.2 -26.7°
Reaches altitude 10° 19:00:54 10° 270° (W) 6,571 7.3 -28.1°
Maximum altitude 19:13:13 21° 230° (SW) 4,176 5.7 -30.0°
Enters shadow 19:18:10 17° 201° (SSW) 3,817 5.3 -30.8°
